Location: Fort Worth, Tx
(32.7431°N, 97.3695°W)
Time: 05:06:24
(UTC-05:00)

Altair - Pass Details

Date: 11 October 2023
Orbit: 1501 x 1682 km, 47.2° (Epoch: 06 December)

Event Time Altitude Azimuth Distance (km) Brightness Sun altitude
Rises 06:21:42 0° 304° (WNW) 4,814 - -27.8°
Reaches altitude 10° 06:25:00 10° 310° (NW) 3,852 - -27.1°
Exits shadow 06:27:18 19° 317° (NW) 3,222 8.9 -26.6°
Maximum altitude 06:34:27 47° 22° (NNE) 2,101 8.3 -25.1°
Drops below altitude 10° 06:44:06 10° 94° (E) 3,938 10.7 -23.1°
Sets 06:47:29 0° 101° (E) 4,929 11.4 -22.4°
